• In Czech Republic
  • List of Countries
  • For 7 days
  • Water Temperature
  • Satellite Maps
  • Weather Map
  • Weather Widgets
  • user-avatar
    Login

    Hourly Weather P'yadykivtsi

    Today, 22 October, Monday

    Time Temperature Precipitation Wind Pressure Humidity
    00:00 +7°C° 0 mm 2 mps 752 mmHg 98%
    01:00 +7°C° 0 mm 2 mps 752 mmHg 100%
    02:00 +6°C° 0 mm 1 mps 752 mmHg 91%
    03:00 +7°C° 0 mm 1 mps 751 mmHg 92%
    04:00 +7°C° 0 mm 1 mps 752 mmHg 92%
    05:00 +6°C° 0 mm 1 mps 752 mmHg 94%
    06:00 +6°C° 0 mm 1 mps 752 mmHg 96%
    07:00 +4°C° 0 mm 2 mps 752 mmHg 98%
    08:00 +5°C° 0 mm 2 mps 752 mmHg 97%
    09:00 +6°C° 0 mm 2 mps 752 mmHg 90%
    10:00 +9°C° 0 mm 1 mps 752 mmHg 84%
    11:00 +10°C° 0 mm 1 mps 752 mmHg 80%
    12:00 +11°C° 0 mm 1 mps 752 mmHg 78%
    13:00 +12°C° 0 mm 1 mps 751 mmHg 75%
    14:00 +12°C° 0 mm 1 mps 751 mmHg 73%
    15:00 +12°C° 0 mm 1 mps 751 mmHg 70%
    16:00 +12°C° 0 mm 1 mps 750 mmHg 70%
    17:00 +11°C° 0 mm 0 mps 750 mmHg 75%
    18:00 +11°C° 0 mm 1 mps 750 mmHg 75%
    19:00 +10°C° 0 mm 1 mps 749 mmHg 79%
    20:00 +10°C° 0 mm 1 mps 749 mmHg 81%
    21:00 +9°C° 0 mm 1 mps 749 mmHg 83%
    22:00 +9°C° 0 mm 1 mps 749 mmHg 88%
    23:00 +8°C° 0 mm 1 mps 749 mmHg 92%

    Tomorrow, 23 October, Tuesday

    Time Temperature Precipitation Wind Pressure Humidity
    00:00 +8°C° 0 mm 1 mps 749 mmHg 93%
    01:00 +8°C° 0 mm 1 mps 749 mmHg 94%
    02:00 +8°C° 0 mm 1 mps 749 mmHg 94%
    03:00 +7°C° 0 mm 1 mps 748 mmHg 95%
    04:00 +7°C° 0 mm 1 mps 748 mmHg 96%
    05:00 +7°C° 0 mm 1 mps 747 mmHg 98%
    06:00 +7°C° 0 mm 1 mps 747 mmHg 99%
    07:00 +8°C° 0 mm 1 mps 747 mmHg 98%
    08:00 +7°C° 0 mm 2 mps 747 mmHg 97%
    09:00 +9°C° 0 mm 2 mps 747 mmHg 94%
    10:00 +9°C° 0 mm 2 mps 747 mmHg 90%
    11:00 +9°C° 0 mm 3 mps 746 mmHg 90%
    12:00 +11°C° 0 mm 4 mps 746 mmHg 86%
    13:00 +11°C° 0 mm 4 mps 745 mmHg 86%
    14:00 +11°C° 0 mm 4 mps 744 mmHg 87%
    15:00 +10°C° 0 mm 3 mps 744 mmHg 91%
    16:00 +10°C° 0 mm 2 mps 743 mmHg 91%
    17:00 +10°C° 0 mm 0 mps 742 mmHg 93%
    18:00 +10°C° 0 mm 1 mps 741 mmHg 96%
    19:00 +10°C° 0.1 mm 1 mps 740 mmHg 98%
    20:00 +10°C° 0 mm 1 mps 740 mmHg 98%
    21:00 +10°C° 0 mm 1 mps 739 mmHg 98%
    22:00 +10°C° 0 mm 1 mps 738 mmHg 98%
    23:00 +10°C° 0 mm 1 mps 736 mmHg 97%

    Day after tomorrow, 24 October, Wednesday

    Time Temperature Precipitation Wind Pressure Humidity
    00:00 +8°C° 0 mm 2 mps 735 mmHg 92%
    01:00 +9°C° 0 mm 3 mps 734 mmHg 86%
    02:00 +8°C° 0 mm 4 mps 734 mmHg 85%
    03:00 +8°C° 0 mm 4 mps 733 mmHg 85%
    04:00 +8°C° 0 mm 5 mps 732 mmHg 83%
    05:00 +8°C° 0 mm 5 mps 731 mmHg 84%
    06:00 +8°C° 0 mm 4 mps 730 mmHg 84%
    07:00 +8°C° 0 mm 6 mps 729 mmHg 82%
    08:00 +9°C° 0 mm 6 mps 728 mmHg 81%
    09:00 +8°C° 0.6 mm 7 mps 727 mmHg 95%
    10:00 +6°C° 1.7 mm 11 mps 728 mmHg 89%
    11:00 +7°C° 0 mm 11 mps 728 mmHg 80%
    12:00 +7°C° 0 mm 12 mps 729 mmHg 80%
    13:00 +6°C° 0 mm 11 mps 729 mmHg 78%
    14:00 +6°C° 0 mm 11 mps 730 mmHg 79%
    15:00 +3°C° 0.3 mm 11 mps 730 mmHg 94%
    16:00 +2°C° 0.3 mm 10 mps 731 mmHg 95%
    17:00 +2°C° 0 mm 10 mps 731 mmHg 94%
    18:00 +2°C° 0 mm 10 mps 732 mmHg 94%
    19:00 +2°C° 0 mm 11 mps 732 mmHg 91%
    20:00 +2°C° 0 mm 11 mps 733 mmHg 89%
    21:00 +1°C° 0 mm 11 mps 733 mmHg 89%
    22:00 +1°C° 0 mm 10 mps 733 mmHg 90%
    23:00 +1°C° 0 mm 11 mps 733 mmHg 91%

    25 October, Thursday

    Time Temperature Precipitation Wind Pressure Humidity
    00:00 +1°C° 0 mm 11 mps 734 mmHg 92%
    01:00 -1°C° 0 mm 11 mps 734 mmHg 94%
    02:00 0°C° 0 mm 10 mps 735 mmHg 93%
    03:00 0°C° 0 mm 10 mps 735 mmHg 93%
    04:00 0°C° 0 mm 10 mps 735 mmHg 94%
    05:00 0°C° 0 mm 10 mps 736 mmHg 93%
    06:00 0°C° 0 mm 10 mps 736 mmHg 93%
    07:00 0°C° 0 mm 10 mps 737 mmHg 93%
    08:00 0°C° 0 mm 9 mps 737 mmHg 92%
    09:00 +1°C° 0 mm 8 mps 738 mmHg 91%
    10:00 +3°C° 0 mm 7 mps 738 mmHg 88%
    11:00 +4°C° 0 mm 7 mps 738 mmHg 83%
    12:00 +5°C° 0 mm 7 mps 738 mmHg 76%
    13:00 +7°C° 0 mm 6 mps 737 mmHg 68%
    14:00 +8°C° 0 mm 5 mps 736 mmHg 65%
    15:00 +7°C° 0 mm 5 mps 736 mmHg 73%
    16:00 +6°C° 0 mm 4 mps 735 mmHg 87%
    17:00 +5°C° 0 mm 7 mps 735 mmHg 84%
    18:00 +6°C° 0.1 mm 8 mps 735 mmHg 80%
    19:00 +6°C° 0 mm 8 mps 735 mmHg 79%
    20:00 +6°C° 0 mm 8 mps 735 mmHg 81%
    21:00 +6°C° 0 mm 8 mps 735 mmHg 85%
    22:00 +6°C° 0 mm 9 mps 736 mmHg 94%
    23:00 +6°C° 0 mm 8 mps 737 mmHg 91%

    26 October, Friday

    Time Temperature Precipitation Wind Pressure Humidity
    00:00 +6°C° 0 mm 8 mps 737 mmHg 89%
    01:00 +5°C° 0 mm 7 mps 738 mmHg 91%
    02:00 +5°C° 0 mm 7 mps 739 mmHg 90%

    27 October, Saturday

    Time Temperature Precipitation Wind Pressure Humidity

    28 October, Sunday

    Time Temperature Precipitation Wind Pressure Humidity
    Show more